FW4559 Weather Reports


time (UTC)temp
C
wind
direction
speed
KPH
gust
KPH
rain 1hr
cm
rain 24hr
cm
rain mn
cm
humidity
%
barometer
mb
20260503182531 13 338 9.7 16.1 0.00 0.00 0.00 26 1019.1
20260503182031 12 283 3.2 16.1 0.00 0.00 0.00 26 1019.1
20260503181531 12 305 6.4 16.1 0.00 0.00 0.00 25 1019.2
20260503181030 13 344 4.8 12.9 0.00 0.00 0.00 26 1019.1
20260503180531 13 335 3.2 11.3 0.00 0.00 0.00 24 1019.2
20260503180034 13 330 6.4 9.7 0.00 0.00 0.00 25 1019.2
20260503175529 13 203 0.0 9.7 0.00 0.00 0.00 27 1019.1
20260503175027 12 192 1.6 19.3 0.00 0.00 0.00 27 1019.3
20260503174526 12 224 6.4 19.3 0.00 0.00 0.00 27 1019.5
20260503174030 12 203 3.2 17.7 0.00 0.00 0.00 26 1019.5
20260503173526 11 319 1.6 14.5 0.00 0.00 0.00 29 1019.5
20260503173026 11 65 6.4 16.1 0.00 0.00 0.00 25 1019.6
20260503172525 12 353 6.4 14.5 0.00 0.00 0.00 25 1019.8
20260503172025 12 349 3.2 17.7 0.00 0.00 0.00 26 1019.7
20260503171523 11 224 6.4 17.7 0.00 0.00 0.00 27 1019.9
20260503171022 11 264 3.2 12.9 0.00 0.00 0.00 27 1020.0
20260503170523 11 239 4.8 20.9 0.00 0.00 0.00 29 1020.0
20260503151005 8 323 4.8 14.5 0.00 0.00 0.00 35 1020.7
20260503150503 7 300 4.8 19.3 0.00 0.00 0.00 36 1020.8
20260503131043 5 152 8.0 19.3 0.00 0.00 0.00 54 1020.1
20260503130541 4 289 4.8 16.1 0.00 0.00 0.00 56 1020.2
20260503110523 2 293 3.2 9.7 0.00 0.00 0.00 68 1018.7
20260503090510 2 13 4.8 12.9 0.00 0.00 0.00 76 1017.5
20260503081505 2 330 3.2 11.3 0.00 0.00 0.00 75 1017.2
20260503081100 2 318 3.2 11.3 0.00 0.00 0.00 75 1017.1
20260503080602 2 315 3.2 11.3 0.00 0.00 0.00 76 1017.0
20260503072554 2 326 0.0 3.2 0.00 0.00 0.00 78 1016.8
20260503072054 2 324 1.6 4.8 0.00 0.00 0.00 79 1016.8
20260503071553 1 353 1.6 4.8 0.00 0.00 0.00 79 1016.7
20260503071052 1 319 0.0 4.8 0.00 0.00 0.00 79 1016.6
20260503070555 1 338 0.0 3.2 0.00 0.00 0.00 80 1016.4
20260503060110 1 229 0.0 1.6 0.00 0.00 0.00 82 1016.5
20260503055045 1 157 0.0 1.6 0.00 0.00 0.00 82 1016.3
20260503054559 1 192 0.0 1.6 0.00 0.00 0.00 81 1016.3
20260503054045 1 220 0.0 3.2 0.00 0.00 0.00 80 1016.2
20260503053544 1 328 0.0 3.2 0.00 0.00 0.00 80 1016.2
20260503053045 1 210 0.0 1.6 0.00 0.00 0.00 81 1016.2
20260503052546 1 210 0.0 1.6 0.00 0.00 0.00 81 1016.1
20260503052045 1 210 0.0 1.6 0.00 0.00 0.00 81 1016.2
20260503051541 1 352 0.0 1.6 0.00 0.00 0.00 79 1016.1
20260503051042 2 352 0.0 1.6 0.00 0.00 0.00 78 1016.2
20260503050540 2 352 0.0 3.2 0.00 0.00 0.00 77 1016.1
20260503050039 2 353 0.0 3.2 0.00 0.00 0.00 78 1016.1
20260503045538 2 202 0.0 0.0 0.00 0.00 0.00 76 1016.0
20260503045037 2 202 0.0 0.0 0.00 0.00 0.00 75 1016.0
20260503044536 2 202 0.0 0.0 0.00 0.00 0.00 75 1016.0
20260503044036 2 202 0.0 0.0 0.00 0.00 0.00 75 1015.9
20260503043536 2 202 0.0 1.6 0.00 0.00 0.00 74 1015.9
20260503043036 2 202 0.0 1.6 0.00 0.00 0.00 73 1015.9
20260503042534 2 233 0.0 1.6 0.00 0.00 0.00 72 1016.0
20260503042031 3 233 0.0 1.6 0.00 0.00 0.00 71 1016.0
20260503041530 3 233 0.0 1.6 0.00 0.00 0.00 70 1015.9
20260503041033 3 233 0.0 1.6 0.00 0.00 0.00 69 1016.0
20260503040529 3 233 0.0 3.2 0.00 0.00 0.00 69 1015.8
20260503040034 3 254 0.0 3.2 0.00 0.00 0.00 68 1015.8
20260503035525 3 12 0.0 1.6 0.00 0.00 0.00 67 1015.8
20260503035024 4 12 0.0 1.6 0.00 0.00 0.00 66 1015.8
20260503034523 4 12 0.0 3.2 0.00 0.00 0.00 65 1015.7
20260503034022 4 338 0.0 4.8 0.00 0.00 0.00 65 1015.7
20260503033522 4 336 0.0 6.4 0.00 0.00 0.00 65 1015.6
20260503033028 4 8 1.6 9.7 0.00 0.00 0.00 65 1015.7
20260503032522 4 335 4.8 9.7 0.00 0.00 0.00 65 1015.6
20260503032021 4 297 1.6 11.3 0.00 0.00 0.00 65 1015.5
20260503031520 5 337 3.2 11.3 0.00 0.00 0.00 64 1015.5
20260503031019 5 1 1.6 6.4 0.00 0.00 0.00 63 1015.4
20260503030517 5 326 1.6 6.4 0.00 0.00 0.00 63 1015.4
20260503030016 5 326 1.6 11.3 0.00 0.00 0.00 62 1015.2
20260503025617 5 346 4.8 11.3 0.00 0.00 0.00 62 1015.2
20260503025016 5 315 4.8 14.5 0.00 0.00 0.00 61 1015.1
20260503024514 5 344 4.8 14.5 0.00 0.00 0.00 61 1015.0
20260503024014 5 308 6.4 14.5 0.00 0.00 0.00 61 1015.0
20260503023513 5 25 8.0 14.5 0.00 0.00 0.00 61 1014.9
20260503023012 5 27 6.4 14.5 0.00 0.00 0.00 61 1014.9
20260503022512 5 342 3.2 9.7 0.00 0.00 0.00 61 1014.9
20260503022012 5 352 3.2 12.9 0.00 0.00 0.00 61 1014.9
20260503021511 5 330 6.4 14.5 0.00 0.00 0.00 60 1015.0
20260503021011 5 328 3.2 9.7 0.00 0.00 0.00 60 1014.9
20260503020510 5 333 3.2 9.7 0.00 0.00 0.00 60 1014.9
20260503020009 5 293 1.6 12.9 0.00 0.00 0.00 59 1014.9
20260503015508 5 333 4.8 12.9 0.00 0.00 0.00 59 1014.8
20260503015006 6 356 3.2 11.3 0.00 0.00 0.00 59 1014.8
20260503014508 6 314 3.2 16.1 0.00 0.00 0.00 58 1014.7
20260503014007 6 299 6.4 16.1 0.00 0.00 0.00 58 1014.6
20260503013508 6 329 4.8 11.3 0.00 0.00 0.00 58 1014.6
20260503013104 6 338 3.2 11.3 0.00 0.00 0.00 58 1014.6
20260503012504 6 334 4.8 11.3 0.00 0.00 0.00 58 1014.5
20260503012005 6 13 4.8 12.9 0.00 0.00 0.00 58 1014.5
20260503011503 6 338 6.4 12.9 0.00 0.00 0.00 58 1014.4
20260503011002 6 331 4.8 9.7 0.00 0.00 0.00 58 1014.3
20260503010501 6 347 4.8 12.9 0.00 0.00 0.00 58 1014.3
20260503010001 6 314 4.8 14.5 0.00 0.00 0.00 58 1014.2
20260503005600 6 314 6.4 14.5 0.00 0.00 0.00 58 1014.1
20260503005100 6 341 3.2 12.9 0.00 0.00 0.00 57 1014.0
20260503004600 6 352 6.4 14.5 0.00 0.00 0.00 56 1014.1
20260503004100 6 16 4.8 24.1 0.00 0.00 0.00 56 1013.9
20260503003559 6 348 6.4 24.1 0.00 0.00 0.00 55 1013.9
20260503003058 7 335 8.0 29.0 0.00 0.00 0.00 55 1013.9
20260503002600 7 15 9.7 29.0 0.00 0.00 0.00 55 1013.9
20260503002058 7 2 12.9 24.1 0.00 0.00 0.00 54 1013.9
20260503001557 7 250 12.9 24.1 0.00 0.00 0.00 54 1013.8
20260503001100 7 344 6.4 20.9 0.00 0.00 0.00 55 1013.7
20260503000557 7 319 8.0 20.9 0.00 0.00 0.00 54 1013.7
20260503000054 7 8 9.7 19.3 0.00 0.00 0.00 54 1013.5
20260502235554 7 22 6.4 22.5 0.00 0.00 0.00 54 1013.5
20260502235054 7 330 11.3 22.5 0.00 0.00 0.00 54 1013.3
20260502234559 7 12 6.4 16.1 0.00 0.00 0.00 54 1013.4
20260502234053 7 324 8.0 19.3 0.00 0.00 0.00 54 1013.3
20260502233552 7 350 9.7 25.7 0.00 0.00 0.00 53 1013.2
20260502233053 8 329 6.4 27.4 0.00 0.00 0.00 52 1013.1
20260502232555 8 333 9.7 27.4 0.00 0.00 0.00 52 1013.0
20260502232052 8 10 6.4 20.9 0.00 0.00 0.00 51 1012.9
20260502231607 8 1 8.0 22.5 0.00 0.00 0.00 50 1012.8
20260502231052 8 360 8.0 22.5 0.00 0.00 0.00 50 1012.8
20260502230552 8 39 6.4 16.1 0.00 0.00 0.00 51 1012.7
20260502230052 8 346 4.8 16.1 0.00 0.00 0.00 51 1012.7
20260502225650 8 63 4.8 16.1 0.00 0.00 0.00 50 1012.7
20260502225050 8 343 4.8 17.7 0.00 0.00 0.00 50 1012.7
20260502224550 8 265 8.0 17.7 0.00 0.00 0.00 49 1012.7
20260502224052 8 292 6.4 19.3 0.00 0.00 0.00 50 1012.8
20260502223550 8 318 8.0 27.4 0.00 0.00 0.00 49 1012.7
20260502223050 9 32 6.4 27.4 0.00 0.00 0.00 47 1012.7
20260502222550 10 283 6.4 20.9 0.00 0.00 0.00 47 1012.8
20260502222050 10 155 8.0 14.5 0.00 0.00 0.00 47 1012.7
20260502221550 10 265 6.4 19.3 0.00 0.00 0.00 46 1012.6
20260502221049 10 28 6.4 22.5 0.00 0.00 0.00 47 1012.5
20260502220550 9 11 8.0 25.7 0.00 0.00 0.00 46 1012.5
20260502220049 9 335 12.9 25.7 0.00 0.00 0.00 47 1012.4
20260502215549 10 330 9.7 22.5 0.00 0.00 0.00 47 1012.3
20260502215048 10 15 8.0 24.1 0.00 0.00 0.00 47 1012.3
20260502214548 10 283 12.9 24.1 0.00 0.00 0.00 46 1012.1
20260502214048 10 347 8.0 22.5 0.00 0.00 0.00 45 1012.1
20260502213548 10 88 3.2 20.9 0.00 0.00 0.00 47 1012.1
20260502213053 10 30 9.7 24.1 0.00 0.00 0.00 46 1012.0
20260502212552 10 319 6.4 33.8 0.00 0.00 0.00 45 1012.1
20260502212048 10 357 8.0 33.8 0.00 0.00 0.00 44 1012.0
20260502211548 10 293 9.7 29.0 0.00 0.00 0.00 43 1011.8
20260502211047 10 338 14.5 22.5 0.00 0.00 0.00 44 1011.9
20260502210547 10 302 6.4 25.7 0.00 0.00 0.00 45 1011.8
20260502210046 10 250 8.0 25.7 0.00 0.00 0.00 43 1011.7
20260502205546 10 293 8.0 27.4 0.00 0.00 0.00 43 1011.5
20260502205046 11 1 4.8 25.7 0.00 0.00 0.00 43 1011.6
20260502204546 11 326 4.8 19.3 0.00 0.00 0.00 44 1011.5
20260502204046 11 24 8.0 24.1 0.00 0.00 0.00 42 1011.5
20260502203547 11 15 14.5 25.7 0.00 0.00 0.00 41 1011.3
20260502203046 11 338 9.7 30.6 0.00 0.00 0.00 42 1011.5
20260502202546 11 329 12.9 30.6 0.00 0.00 0.00 41 1011.4
20260502202049 12 321 16.1 30.6 0.00 0.00 0.00 39 1011.3
20260502201549 12 279 11.3 24.1 0.00 0.00 0.00 40 1011.4
20260502201045 12 120 11.3 29.0 0.00 0.00 0.00 38 1011.4
20260502200545 12 59 9.7 29.0 0.00 0.00 0.00 39 1011.3
20260502200044 12 23 8.0 19.3 0.00 0.00 0.00 37 1011.5
20260502195543 12 204 4.8 20.9 0.00 0.00 0.00 37 1011.4
20260502195043 12 346 9.7 20.9 0.00 0.00 0.00 36 1011.3
20260502194542 12 220 6.4 20.9 0.00 0.00 0.00 36 1011.4
20260502194045 12 359 6.4 20.9 0.00 0.00 0.00 37 1011.4
20260502193543 13 346 12.9 19.3 0.00 0.00 0.00 36 1011.5
20260502193049 13 328 4.8 22.5 0.00 0.00 0.00 35 1011.5
20260502192543 13 60 6.4 19.3 0.00 0.00 0.00 37 1011.5
20260502192040 12 342 6.4 20.9 0.00 0.00 0.00 37 1011.5
20260502191545 13 340 9.7 19.3 0.00 0.00 0.00 35 1011.6
20260502191039 13 191 8.0 16.1 0.00 0.00 0.00 38 1011.6
20260502190539 12 287 4.8 20.9 0.00 0.00 0.00 37 1011.6
20260502190038 12 330 6.4 20.9 0.00 0.00 0.00 38 1011.7
20260502185537 12 121 4.8 20.9 0.00 0.00 0.00 37 1011.7
20260502185037 12 82 4.8 20.9 0.00 0.00 0.00 39 1011.7
20260502184547 12 329 1.6 12.9 0.00 0.00 0.00 37 1011.7
20260502184036 12 234 3.2 17.7 0.00 0.00 0.00 36 1011.7
20260502183535 11 226 11.3 25.7 0.00 0.00 0.00 37 1011.8
20260502183037 12 319 14.5 25.7 0.00 0.00 0.00 37 1011.9